Location: Stanford
(52.2833°N, 2.4333°W)
Time: 02:28:15
(UTC+00:00)

Cosmos 2082 Rocket - Pass Details

Date: 22 January 2021
Orbit: 832 x 855 km, 71.0° (Epoch: 28 February)

Event Time Altitude Azimuth Distance (km) Brightness Sun altitude
Rises 19:01:38 0° 329° (NNW) 3,438 5.7 -21.4°
Reaches altitude 10° 19:04:15 10° 337° (NNW) 2,499 4.9 -21.8°
Maximum altitude 19:09:43 43° 48° (NE) 1,184 2.6 -22.6°
Enters shadow 19:09:47 43° 50° (NE) 1,184 2.6 -22.6°
